owner,sensor,date,latitude,longitude,vertical_datum,wind_speed,wind_to_direction,wind_speed_of_gust,qcFlag 
TCOON,ioos:station:TCOON:031:1,2016-07-01T00:00:00Z,28.4073,-96.7122,0.0,99.0,-9999.0,99.0,'11144222,99999999,11144222' 
TCOON,ioos:station:TCOON:031:1,2016-07-01T00:06:00Z,28.4073,-96.7122,0.0,99.0,-9999.0,99.0,'11144222,99999999,11144222' 
TCOON,ioos:station:TCOON:031:1,2016-07-01T00:12:00Z,28.4073,-96.7122,0.0,99.0,-9999.0,99.0,'11144222,99999999,11144222' 
TCOON,ioos:station:TCOON:031:1,2016-07-01T00:18:00Z,28.4073,-96.7122,0.0,3.1,63.0,3.7,'1111122,1111122,1111122' 
TCOON,ioos:station:TCOON:031:1,2016-07-01T01:18:00Z,28.4073,-96.7122,0.0,2.4,99.0,3.0,'1111122,1111122,1111122' 
TCOON,ioos:station:TCOON:031:1,2016-07-01T01:24:00Z,28.4073,-96.7122,0.0,2.9,94.0,4.2,'11111222,11111222,11111222' 
TCOON,ioos:station:TCOON:031:1,2016-07-01T01:30:00Z,28.4073,-96.7122,0.0,3.3,91.0,4.3,'11111222,11111222,11111222' 
TCOON,ioos:station:TCOON:031:1,2016-07-01T01:36:00Z,28.4073,-96.7122,0.0,99.0,-9999.0,99.0,'11144222,99999999,11144222' 
TCOON,ioos:station:TCOON:031:1,2016-07-01T01:42:00Z,28.4073,-96.7122,0.0,99.0,-9999.0,99.0,'11144222,99999999,11144222' 
TCOON,ioos:station:TCOON:031:1,2016-07-01T01:48:00Z,28.4073,-96.7122,0.0,99.0,-9999.0,99.0,'11144222,99999999,11144222' 
TCOON,ioos:station:TCOON:031:1,2016-07-01T01:54:00Z,28.4073,-96.7122,0.0,99.0,-9999.0,99.0,'11144222,99999999,11144222' 
TCOON,ioos:station:TCOON:031:1,2016-07-01T02:00:00Z,28.4073,-96.7122,0.0,99.0,-9999.0,99.0,'11144222,99999999,11144222' 
TCOON,ioos:station:TCOON:031:1,2016-07-01T02:06:00Z,28.4073,-96.7122,0.0,99.0,-9999.0,99.0,'11144222,99999999,11144222' 
TCOON,ioos:station:TCOON:031:1,2016-07-01T02:12:00Z,28.4073,-96.7122,0.0,99.0,-9999.0,99.0,'11144222,99999999,11144222' 
TCOON,ioos:station:TCOON:031:1,2016-07-01T02:18:00Z,28.4073,-96.7122,0.0,3.3,115.0,3.7,'1111122,1111122,1111122' 
TCOON,ioos:station:TCOON:031:1,2016-07-01T02:24:00Z,28.4073,-96.7122,0.0,99.0,-9999.0,99.0,'11144222,99999999,11144222' 
TCOON,ioos:station:TCOON:031:1,2016-07-01T02:30:00Z,28.4073,-96.7122,0.0,99.0,-9999.0,99.0,'11144222,99999999,11144222' 
TCOON,ioos:station:TCOON:031:1,2016-07-01T02:36:00Z,28.4073,-96.7122,0.0,99.0,-9999.0,99.0,'11144222,99999999,11144222' 
TCOON,ioos:station:TCOON:031:1,2016-07-01T02:42:00Z,28.4073,-96.7122,0.0,99.0,-9999.0,99.0,'11144222,99999999,11144222' 
TCOON,ioos:station:TCOON:031:1,2016-07-01T02:48:00Z,28.4073,-96.7122,0.0,99.0,-9999.0,99.0,'11144222,99999999,11144222' 
TCOON,ioos:station:TCOON:031:1,2016-07-01T02:54:00Z,28.4073,-96.7122,0.0,99.0,-9999.0,99.0,'11144222,99999999,11144222' 
TCOON,ioos:station:TCOON:031:1,2016-07-01T03:00:00Z,28.4073,-96.7122,0.0,99.0,-9999.0,99.0,'11144222,99999999,11144222' 
TCOON,ioos:station:TCOON:031:1,2016-07-01T03:06:00Z,28.4073,-96.7122,0.0,99.0,-9999.0,99.0,'11144222,99999999,11144222' 
TCOON,ioos:station:TCOON:031:1,2016-07-01T03:12:00Z,28.4073,-96.7122,0.0,99.0,-9999.0,99.0,'11144222,99999999,11144222' 
TCOON,ioos:station:TCOON:031:1,2016-07-01T03:18:00Z,28.4073,-96.7122,0.0,1.1,84.0,1.7,'1111122,1111122,1111122' 
TCOON,ioos:station:TCOON:031:1,2016-07-01T03:24:00Z,28.4073,-96.7122,0.0,1.0,65.0,1.3,'11111222,11111222,11111222' 
TCOON,ioos:station:TCOON:031:1,2016-07-01T03:30:00Z,28.4073,-96.7122,0.0,1.1,45.0,1.5,'11111222,11111222,11111222' 
TCOON,ioos:station:TCOON:031:1,2016-07-01T03:36:00Z,28.4073,-96.7122,0.0,99.0,-9999.0,99.0,'11144222,99999999,11144222' 
TCOON,ioos:station:TCOON:031:1,2016-07-01T03:42:00Z,28.4073,-96.7122,0.0,99.0,-9999.0,99.0,'11144222,99999999,11144222' 
TCOON,ioos:station:TCOON:031:1,2016-07-01T03:48:00Z,28.4073,-96.7122,0.0,99.0,-9999.0,99.0,'11144222,99999999,11144222' 
TCOON,ioos:station:TCOON:031:1,2016-07-01T03:54:00Z,28.4073,-96.7122,0.0,1.0,68.0,1.3,'11111222,11111222,11111222' 
TCOON,ioos:station:TCOON:031:1,2016-07-01T04:00:00Z,28.4073,-96.7122,0.0,0.9,65.0,1.2,'11111222,11111222,11111222' 
TCOON,ioos:station:TCOON:031:1,2016-07-01T04:06:00Z,28.4073,-96.7122,0.0,0.9,87.0,1.4,'11111222,11111222,11111222' 
TCOON,ioos:station:TCOON:031:1,2016-07-01T04:12:00Z,28.4073,-96.7122,0.0,1.0,83.0,1.6,'11111222,11111222,11111222' 
TCOON,ioos:station:TCOON:031:1,2016-07-01T04:18:00Z,28.4073,-96.7122,0.0,1.0,83.0,1.6,'1111122,1111122,1111122' 
TCOON,ioos:station:TCOON:031:1,2016-07-01T04:24:00Z,28.4073,-96.7122,0.0,1.0,83.0,1.7,'11111222,11111222,11111222' 
TCOON,ioos:station:TCOON:031:1,2016-07-01T04:30:00Z,28.4073,-96.7122,0.0,0.9,95.0,1.3,'11111222,11111222,11111222' 
TCOON,ioos:station:TCOON:031:1,2016-07-01T04:36:00Z,28.4073,-96.7122,0.0,0.9,86.0,1.7,'11111222,11111222,11111222' 
TCOON,ioos:station:TCOON:031:1,2016-07-01T04:42:00Z,28.4073,-96.7122,0.0,1.1,78.0,1.4,'11111222,11111222,11111222' 
TCOON,ioos:station:TCOON:031:1,2016-07-01T04:48:00Z,28.4073,-96.7122,0.0,1.0,51.0,1.5,'11111222,11111222,11111222' 
TCOON,ioos:station:TCOON:031:1,2016-07-01T04:54:00Z,28.4073,-96.7122,0.0,0.8,63.0,1.2,'11111222,11111222,11111222' 
TCOON,ioos:station:TCOON:031:1,2016-07-01T05:00:00Z,28.4073,-96.7122,0.0,1.3,48.0,1.6,'11111222,11111222,11111222' 
TCOON,ioos:station:TCOON:031:1,2016-07-01T05:06:00Z,28.4073,-96.7122,0.0,1.1,40.0,1.6,'11111222,11111222,11111222' 
TCOON,ioos:station:TCOON:031:1,2016-07-01T05:12:00Z,28.4073,-96.7122,0.0,1.2,36.0,1.4,'11111222,11111222,11111222' 
TCOON,ioos:station:TCOON:031:1,2016-07-01T05:18:00Z,28.4073,-96.7122,0.0,1.2,36.0,1.4,'1111122,1111122,1111122' 
TCOON,ioos:station:TCOON:031:1,2016-07-01T05:24:00Z,28.4073,-96.7122,0.0,1.5,18.0,1.7,'11111222,11111222,11111222' 
TCOON,ioos:station:TCOON:031:1,2016-07-01T05:30:00Z,28.4073,-96.7122,0.0,1.3,29.0,1.7,'11111222,11111222,11111222' 
TCOON,ioos:station:TCOON:031:1,2016-07-01T05:36:00Z,28.4073,-96.7122,0.0,1.2,61.0,1.4,'11111222,11111222,11111222' 
TCOON,ioos:station:TCOON:031:1,2016-07-01T05:42:00Z,28.4073,-96.7122,0.0,1.3,49.0,1.7,'11111222,11111222,11111222' 
TCOON,ioos:station:TCOON:031:1,2016-07-01T05:48:00Z,28.4073,-96.7122,0.0,1.2,47.0,1.6,'11111222,11111222,11111222' 
TCOON,ioos:station:TCOON:031:1,2016-07-01T05:54:00Z,28.4073,-96.7122,0.0,1.4,41.0,1.6,'11111222,11111222,11111222' 
TCOON,ioos:station:TCOON:031:1,2016-07-01T06:00:00Z,28.4073,-96.7122,0.0,1.2,49.0,1.5,'11111222,11111222,11111222' 
TCOON,ioos:station:TCOON:031:1,2016-07-01T06:06:00Z,28.4073,-96.7122,0.0,1.5,53.0,1.7,'11111222,11111222,11111222' 
TCOON,ioos:station:TCOON:031:1,2016-07-01T06:12:00Z,28.4073,-96.7122,0.0,1.5,50.0,1.8,'11111222,11111222,11111222' 
TCOON,ioos:station:TCOON:031:1,2016-07-01T06:18:00Z,28.4073,-96.7122,0.0,1.5,50.0,1.8,'1111122,1111122,1111122' 
TCOON,ioos:station:TCOON:031:1,2016-07-01T06:24:00Z,28.4073,-96.7122,0.0,1.4,59.0,1.7,'11111222,11111222,11111222' 
TCOON,ioos:station:TCOON:031:1,2016-07-01T06:30:00Z,28.4073,-96.7122,0.0,1.5,77.0,1.8,'11111222,11111222,11111222' 
TCOON,ioos:station:TCOON:031:1,2016-07-01T06:36:00Z,28.4073,-96.7122,0.0,1.5,89.0,1.9,'11111222,11111222,11111222' 
TCOON,ioos:station:TCOON:031:1,2016-07-01T06:42:00Z,28.4073,-96.7122,0.0,1.4,100.0,1.9,'11111222,11111222,11111222' 
TCOON,ioos:station:TCOON:031:1,2016-07-01T06:48:00Z,28.4073,-96.7122,0.0,1.7,100.0,2.1,'11111222,11111222,11111222' 
TCOON,ioos:station:TCOON:031:1,2016-07-01T06:54:00Z,28.4073,-96.7122,0.0,1.9,97.0,2.3,'11111222,11111222,11111222' 
TCOON,ioos:station:TCOON:031:1,2016-07-01T07:00:00Z,28.4073,-96.7122,0.0,2.0,96.0,2.3,'11111222,11111222,11111222' 
TCOON,ioos:station:TCOON:031:1,2016-07-01T07:06:00Z,28.4073,-96.7122,0.0,1.5,93.0,2.2,'11111222,11111222,11111222' 
TCOON,ioos:station:TCOON:031:1,2016-07-01T07:12:00Z,28.4073,-96.7122,0.0,1.4,101.0,1.9,'11111222,11111222,11111222' 
TCOON,ioos:station:TCOON:031:1,2016-07-01T07:18:00Z,28.4073,-96.7122,0.0,1.4,101.0,1.9,'1111122,1111122,1111122' 
TCOON,ioos:station:TCOON:031:1,2016-07-01T07:24:00Z,28.4073,-96.7122,0.0,1.7,103.0,2.4,'11111222,11111222,11111222' 
TCOON,ioos:station:TCOON:031:1,2016-07-01T07:30:00Z,28.4073,-96.7122,0.0,1.6,98.0,2.3,'11111222,11111222,11111222' 
TCOON,ioos:station:TCOON:031:1,2016-07-01T07:36:00Z,28.4073,-96.7122,0.0,1.3,96.0,2.1,'11111222,11111222,11111222' 
TCOON,ioos:station:TCOON:031:1,2016-07-01T07:42:00Z,28.4073,-96.7122,0.0,1.3,107.0,1.6,'11111222,11111222,11111222' 
TCOON,ioos:station:TCOON:031:1,2016-07-01T07:48:00Z,28.4073,-96.7122,0.0,1.3,110.0,2.0,'11111222,11111222,11111222' 
TCOON,ioos:station:TCOON:031:1,2016-07-01T07:54:00Z,28.4073,-96.7122,0.0,1.0,103.0,1.5,'11111222,11111222,11111222' 
TCOON,ioos:station:TCOON:031:1,2016-07-01T08:00:00Z,28.4073,-96.7122,0.0,1.2,92.0,1.6,'11111222,11111222,11111222' 
TCOON,ioos:station:TCOON:031:1,2016-07-01T08:06:00Z,28.4073,-96.7122,0.0,1.1,87.0,1.7,'11111222,11111222,11111222' 
TCOON,ioos:station:TCOON:031:1,2016-07-01T08:12:00Z,28.4073,-96.7122,0.0,0.8,85.0,1.4,'11111222,11111222,11111222' 
TCOON,ioos:station:TCOON:031:1,2016-07-01T08:18:00Z,28.4073,-96.7122,0.0,0.8,85.0,1.4,'1111122,1111122,1111122' 
TCOON,ioos:station:TCOON:031:1,2016-07-01T08:24:00Z,28.4073,-96.7122,0.0,1.5,98.0,1.9,'11111222,11111222,11111222' 
TCOON,ioos:station:TCOON:031:1,2016-07-01T08:30:00Z,28.4073,-96.7122,0.0,2.0,108.0,2.4,'11111222,11111222,11111222' 
TCOON,ioos:station:TCOON:031:1,2016-07-01T08:36:00Z,28.4073,-96.7122,0.0,1.6,108.0,2.4,'11111222,11111222,11111222' 
TCOON,ioos:station:TCOON:031:1,2016-07-01T08:42:00Z,28.4073,-96.7122,0.0,1.8,102.0,2.2,'11111222,11111222,11111222' 
TCOON,ioos:station:TCOON:031:1,2016-07-01T08:48:00Z,28.4073,-96.7122,0.0,1.3,95.0,2.0,'11111222,11111222,11111222' 
TCOON,ioos:station:TCOON:031:1,2016-07-01T08:54:00Z,28.4073,-96.7122,0.0,1.8,100.0,2.2,'11111222,11111222,11111222' 
TCOON,ioos:station:TCOON:031:1,2016-07-01T09:00:00Z,28.4073,-96.7122,0.0,1.4,101.0,2.2,'11111222,11111222,11111222' 
TCOON,ioos:station:TCOON:031:1,2016-07-01T09:06:00Z,28.4073,-96.7122,0.0,1.5,119.0,2.2,'11111222,11111222,11111222' 
TCOON,ioos:station:TCOON:031:1,2016-07-01T09:12:00Z,28.4073,-96.7122,0.0,1.7,124.0,2.2,'11111222,11111222,11111222' 
TCOON,ioos:station:TCOON:031:1,2016-07-01T09:18:00Z,28.4073,-96.7122,0.0,1.7,124.0,2.2,'1111122,1111122,1111122' 
TCOON,ioos:station:TCOON:031:1,2016-07-01T09:24:00Z,28.4073,-96.7122,0.0,3.6,176.0,4.2,'11111222,11111222,11111222' 
TCOON,ioos:station:TCOON:031:1,2016-07-01T09:30:00Z,28.4073,-96.7122,0.0,3.4,177.0,4.2,'11111222,11111222,11111222' 
TCOON,ioos:station:TCOON:031:1,2016-07-01T09:36:00Z,28.4073,-96.7122,0.0,2.9,196.0,3.9,'11111222,11111222,11111222' 
TCOON,ioos:station:TCOON:031:1,2016-07-01T09:42:00Z,28.4073,-96.7122,0.0,1.6,254.0,3.5,'11111222,11111222,11111222' 
TCOON,ioos:station:TCOON:031:1,2016-07-01T09:48:00Z,28.4073,-96.7122,0.0,3.8,236.0,4.1,'11111222,11111222,11111222' 
TCOON,ioos:station:TCOON:031:1,2016-07-01T09:54:00Z,28.4073,-96.7122,0.0,4.3,222.0,4.6,'11111222,11111222,11111222' 
TCOON,ioos:station:TCOON:031:1,2016-07-01T10:00:00Z,28.4073,-96.7122,0.0,3.2,211.0,4.6,'11111222,11111222,11111222' 
TCOON,ioos:station:TCOON:031:1,2016-07-01T10:06:00Z,28.4073,-96.7122,0.0,3.8,218.0,4.6,'11111222,11111222,11111222' 
TCOON,ioos:station:TCOON:031:1,2016-07-01T10:12:00Z,28.4073,-96.7122,0.0,3.7,221.0,4.3,'11111222,11111222,11111222' 
TCOON,ioos:station:TCOON:031:1,2016-07-01T10:18:00Z,28.4073,-96.7122,0.0,3.7,221.0,4.3,'1111122,1111122,1111122' 
TCOON,ioos:station:TCOON:031:1,2016-07-01T10:24:00Z,28.4073,-96.7122,0.0,3.5,217.0,4.6,'11111222,11111222,11111222' 
TCOON,ioos:station:TCOON:031:1,2016-07-01T10:30:00Z,28.4073,-96.7122,0.0,3.2,208.0,3.8,'11111222,11111222,11111222' 
TCOON,ioos:station:TCOON:031:1,2016-07-01T10:36:00Z,28.4073,-96.7122,0.0,3.1,217.0,4.0,'11111222,11111222,11111222' 
TCOON,ioos:station:TCOON:031:1,2016-07-01T10:42:00Z,28.4073,-96.7122,0.0,2.8,217.0,3.5,'11111222,11111222,11111222' 
TCOON,ioos:station:TCOON:031:1,2016-07-01T10:48:00Z,28.4073,-96.7122,0.0,2.2,200.0,3.0,'11111222,11111222,11111222' 
TCOON,ioos:station:TCOON:031:1,2016-07-01T10:54:00Z,28.4073,-96.7122,0.0,2.5,199.0,3.2,'11111222,11111222,11111222' 
TCOON,ioos:station:TCOON:031:1,2016-07-01T11:00:00Z,28.4073,-96.7122,0.0,2.0,51.0,2.8,'11111222,11111222,11111222' 
TCOON,ioos:station:TCOON:031:1,2016-07-01T11:06:00Z,28.4073,-96.7122,0.0,1.7,57.0,2.6,'11111222,11111222,11111222' 
TCOON,ioos:station:TCOON:031:1,2016-07-01T11:12:00Z,28.4073,-96.7122,0.0,1.2,10.0,1.6,'11111222,11111222,11111222' 
TCOON,ioos:station:TCOON:031:1,2016-07-01T11:18:00Z,28.4073,-96.7122,0.0,1.2,10.0,1.6,'1111122,1111122,1111122' 
TCOON,ioos:station:TCOON:031:1,2016-07-01T11:24:00Z,28.4073,-96.7122,0.0,0.0,277.0,1.2,'11111222,11111222,11111222' 
TCOON,ioos:station:TCOON:031:1,2016-07-01T11:30:00Z,28.4073,-96.7122,0.0,1.9,205.0,2.6,'11111222,11111222,11111222' 
TCOON,ioos:station:TCOON:031:1,2016-07-01T11:36:00Z,28.4073,-96.7122,0.0,2.0,191.0,2.8,'11111222,11111222,11111222' 
TCOON,ioos:station:TCOON:031:1,2016-07-01T11:42:00Z,28.4073,-96.7122,0.0,1.0,32.0,2.5,'11111222,11111222,11111222' 
TCOON,ioos:station:TCOON:031:1,2016-07-01T11:48:00Z,28.4073,-96.7122,0.0,0.7,8.0,0.9,'11111222,11111222,11111222' 
TCOON,ioos:station:TCOON:031:1,2016-07-01T11:54:00Z,28.4073,-96.7122,0.0,1.1,332.0,1.3,'11111222,11111222,11111222' 
TCOON,ioos:station:TCOON:031:1,2016-07-01T12:00:00Z,28.4073,-96.7122,0.0,0.3,342.0,1.3,'11111222,11111222,11111222' 
TCOON,ioos:station:TCOON:031:1,2016-07-01T12:06:00Z,28.4073,-96.7122,0.0,0.9,14.0,1.3,'11111222,11111222,11111222' 
TCOON,ioos:station:TCOON:031:1,2016-07-01T12:12:00Z,28.4073,-96.7122,0.0,0.9,329.0,1.3,'11111222,11111222,11111222' 
TCOON,ioos:station:TCOON:031:1,2016-07-01T12:18:00Z,28.4073,-96.7122,0.0,0.9,329.0,1.3,'1111122,1111122,1111122' 
TCOON,ioos:station:TCOON:031:1,2016-07-01T12:24:00Z,28.4073,-96.7122,0.0,1.3,356.0,1.8,'11111222,11111222,11111222' 
TCOON,ioos:station:TCOON:031:1,2016-07-01T12:30:00Z,28.4073,-96.7122,0.0,1.4,347.0,1.9,'11111222,11111222,11111222' 
TCOON,ioos:station:TCOON:031:1,2016-07-01T12:36:00Z,28.4073,-96.7122,0.0,1.4,350.0,1.9,'11111222,11111222,11111222' 
TCOON,ioos:station:TCOON:031:1,2016-07-01T12:42:00Z,28.4073,-96.7122,0.0,1.5,359.0,1.9,'11111222,11111222,11111222' 
TCOON,ioos:station:TCOON:031:1,2016-07-01T12:48:00Z,28.4073,-96.7122,0.0,1.8,334.0,2.3,'11111222,11111222,11111222' 
TCOON,ioos:station:TCOON:031:1,2016-07-01T12:54:00Z,28.4073,-96.7122,0.0,1.9,346.0,2.4,'11111222,11111222,11111222' 
TCOON,ioos:station:TCOON:031:1,2016-07-01T13:00:00Z,28.4073,-96.7122,0.0,1.2,24.0,2.1,'11111222,11111222,11111222' 
TCOON,ioos:station:TCOON:031:1,2016-07-01T13:06:00Z,28.4073,-96.7122,0.0,1.1,51.0,1.8,'11111222,11111222,11111222' 
TCOON,ioos:station:TCOON:031:1,2016-07-01T13:12:00Z,28.4073,-96.7122,0.0,1.0,34.0,1.4,'11111222,11111222,11111222' 
TCOON,ioos:station:TCOON:031:1,2016-07-01T13:18:00Z,28.4073,-96.7122,0.0,1.0,34.0,1.4,'1111122,1111122,1111122' 
TCOON,ioos:station:TCOON:031:1,2016-07-01T13:24:00Z,28.4073,-96.7122,0.0,1.1,22.0,1.7,'11111222,11111222,11111222' 
TCOON,ioos:station:TCOON:031:1,2016-07-01T13:30:00Z,28.4073,-96.7122,0.0,1.4,344.0,1.8,'11111222,11111222,11111222' 
TCOON,ioos:station:TCOON:031:1,2016-07-01T13:36:00Z,28.4073,-96.7122,0.0,1.6,12.0,2.0,'11111222,11111222,11111222' 
TCOON,ioos:station:TCOON:031:1,2016-07-01T13:42:00Z,28.4073,-96.7122,0.0,1.5,353.0,1.9,'11111222,11111222,11111222' 
TCOON,ioos:station:TCOON:031:1,2016-07-01T13:48:00Z,28.4073,-96.7122,0.0,1.0,359.0,1.7,'11111222,11111222,11111222' 
TCOON,ioos:station:TCOON:031:1,2016-07-01T13:54:00Z,28.4073,-96.7122,0.0,1.4,299.0,2.0,'11111222,11111222,11111222' 
TCOON,ioos:station:TCOON:031:1,2016-07-01T14:00:00Z,28.4073,-96.7122,0.0,1.9,328.0,2.3,'11111222,11111222,11111222' 
TCOON,ioos:station:TCOON:031:1,2016-07-01T14:06:00Z,28.4073,-96.7122,0.0,0.8,295.0,2.3,'11111222,11111222,11111222' 
TCOON,ioos:station:TCOON:031:1,2016-07-01T14:12:00Z,28.4073,-96.7122,0.0,0.9,236.0,2.2,'11111222,11111222,11111222' 
TCOON,ioos:station:TCOON:031:1,2016-07-01T14:18:00Z,28.4073,-96.7122,0.0,0.9,236.0,2.2,'1111122,1111122,1111122' 
TCOON,ioos:station:TCOON:031:1,2016-07-01T14:24:00Z,28.4073,-96.7122,0.0,1.2,303.0,2.3,'11111222,11111222,11111222' 
TCOON,ioos:station:TCOON:031:1,2016-07-01T14:30:00Z,28.4073,-96.7122,0.0,1.9,351.0,2.7,'11111222,11111222,11111222' 
TCOON,ioos:station:TCOON:031:1,2016-07-01T14:36:00Z,28.4073,-96.7122,0.0,0.3,288.0,2.3,'11111222,11111222,11111222' 
TCOON,ioos:station:TCOON:031:1,2016-07-01T14:42:00Z,28.4073,-96.7122,0.0,1.2,260.0,1.6,'11111222,11111222,11111222' 
TCOON,ioos:station:TCOON:031:1,2016-07-01T14:48:00Z,28.4073,-96.7122,0.0,0.1,251.0,1.5,'11111222,11111222,11111222' 
TCOON,ioos:station:TCOON:031:1,2016-07-01T14:54:00Z,28.4073,-96.7122,0.0,0.3,261.0,0.7,'11111222,11111222,11111222' 
TCOON,ioos:station:TCOON:031:1,2016-07-01T15:00:00Z,28.4073,-96.7122,0.0,0.9,240.0,1.2,'11111222,11111222,11111222' 
TCOON,ioos:station:TCOON:031:1,2016-07-01T15:06:00Z,28.4073,-96.7122,0.0,1.3,238.0,1.7,'11111222,11111222,11111222' 
TCOON,ioos:station:TCOON:031:1,2016-07-01T15:12:00Z,28.4073,-96.7122,0.0,1.5,218.0,1.9,'11111222,11111222,11111222' 
TCOON,ioos:station:TCOON:031:1,2016-07-01T15:18:00Z,28.4073,-96.7122,0.0,1.5,218.0,1.9,'1111122,1111122,1111122' 
TCOON,ioos:station:TCOON:031:1,2016-07-01T15:24:00Z,28.4073,-96.7122,0.0,1.4,265.0,1.9,'11111222,11111222,11111222' 
TCOON,ioos:station:TCOON:031:1,2016-07-01T15:30:00Z,28.4073,-96.7122,0.0,1.1,247.0,1.8,'11111222,11111222,11111222' 
TCOON,ioos:station:TCOON:031:1,2016-07-01T15:36:00Z,28.4073,-96.7122,0.0,0.1,167.0,1.5,'11111222,11111222,11111222' 
TCOON,ioos:station:TCOON:031:1,2016-07-01T15:42:00Z,28.4073,-96.7122,0.0,0.6,249.0,1.3,'11111222,11111222,11111222' 
TCOON,ioos:station:TCOON:031:1,2016-07-01T15:48:00Z,28.4073,-96.7122,0.0,0.7,175.0,1.4,'11111222,11111222,11111222' 
TCOON,ioos:station:TCOON:031:1,2016-07-01T15:54:00Z,28.4073,-96.7122,0.0,0.7,179.0,2.0,'11111222,11111222,11111222' 
TCOON,ioos:station:TCOON:031:1,2016-07-01T16:00:00Z,28.4073,-96.7122,0.0,1.3,170.0,1.6,'11111222,11111222,11111222' 
TCOON,ioos:station:TCOON:031:1,2016-07-01T16:06:00Z,28.4073,-96.7122,0.0,1.7,180.0,2.0,'11111222,11111222,11111222' 
TCOON,ioos:station:TCOON:031:1,2016-07-01T16:12:00Z,28.4073,-96.7122,0.0,1.9,200.0,2.4,'11111222,11111222,11111222' 
TCOON,ioos:station:TCOON:031:1,2016-07-01T16:18:00Z,28.4073,-96.7122,0.0,1.9,200.0,2.4,'1111122,1111122,1111122' 
TCOON,ioos:station:TCOON:031:1,2016-07-01T16:24:00Z,28.4073,-96.7122,0.0,0.5,169.0,0.9,'11111222,11111222,11111222' 
TCOON,ioos:station:TCOON:031:1,2016-07-01T16:30:00Z,28.4073,-96.7122,0.0,0.8,198.0,1.0,'11111222,11111222,11111222' 
TCOON,ioos:station:TCOON:031:1,2016-07-01T16:36:00Z,28.4073,-96.7122,0.0,2.7,238.0,3.5,'11111222,11111222,11111222' 
TCOON,ioos:station:TCOON:031:1,2016-07-01T16:42:00Z,28.4073,-96.7122,0.0,1.4,233.0,2.9,'11111222,11111222,11111222' 
TCOON,ioos:station:TCOON:031:1,2016-07-01T16:48:00Z,28.4073,-96.7122,0.0,2.9,246.0,3.8,'11111222,11111222,11111222' 
TCOON,ioos:station:TCOON:031:1,2016-07-01T16:54:00Z,28.4073,-96.7122,0.0,3.0,249.0,3.2,'11111222,11111222,11111222' 
TCOON,ioos:station:TCOON:031:1,2016-07-01T17:00:00Z,28.4073,-96.7122,0.0,2.0,251.0,3.5,'11111222,11111222,11111222' 
TCOON,ioos:station:TCOON:031:1,2016-07-01T17:06:00Z,28.4073,-96.7122,0.0,1.5,247.0,2.3,'11111222,11111222,11111222' 
TCOON,ioos:station:TCOON:031:1,2016-07-01T17:12:00Z,28.4073,-96.7122,0.0,1.2,203.0,1.4,'11111222,11111222,11111222' 
TCOON,ioos:station:TCOON:031:1,2016-07-01T17:18:00Z,28.4073,-96.7122,0.0,1.2,203.0,1.4,'1111122,1111122,1111122' 
TCOON,ioos:station:TCOON:031:1,2016-07-01T17:24:00Z,28.4073,-96.7122,0.0,0.5,253.0,1.2,'11111222,11111222,11111222' 
TCOON,ioos:station:TCOON:031:1,2016-07-01T17:30:00Z,28.4073,-96.7122,0.0,0.2,186.0,0.9,'11111222,11111222,11111222' 
TCOON,ioos:station:TCOON:031:1,2016-07-01T17:36:00Z,28.4073,-96.7122,0.0,0.6,159.0,0.9,'11111222,11111222,11111222' 
TCOON,ioos:station:TCOON:031:1,2016-07-01T17:42:00Z,28.4073,-96.7122,0.0,1.0,164.0,1.5,'11111222,11111222,11111222' 
TCOON,ioos:station:TCOON:031:1,2016-07-01T17:48:00Z,28.4073,-96.7122,0.0,2.2,65.0,3.2,'11111222,11111222,11111222' 
TCOON,ioos:station:TCOON:031:1,2016-07-01T17:54:00Z,28.4073,-96.7122,0.0,1.4,80.0,3.7,'11111222,11111222,11111222' 
TCOON,ioos:station:TCOON:031:1,2016-07-01T18:00:00Z,28.4073,-96.7122,0.0,3.4,64.0,4.9,'11111222,11111222,11111222' 
TCOON,ioos:station:TCOON:031:1,2016-07-01T18:06:00Z,28.4073,-96.7122,0.0,3.0,38.0,4.1,'11111222,11111222,11111222' 
TCOON,ioos:station:TCOON:031:1,2016-07-01T18:12:00Z,28.4073,-96.7122,0.0,2.3,43.0,3.4,'11111222,11111222,11111222' 
TCOON,ioos:station:TCOON:031:1,2016-07-01T18:18:00Z,28.4073,-96.7122,0.0,2.3,43.0,3.4,'1111122,1111122,1111122' 
TCOON,ioos:station:TCOON:031:1,2016-07-01T18:24:00Z,28.4073,-96.7122,0.0,2.9,15.0,3.7,'11111222,11111222,11111222' 
TCOON,ioos:station:TCOON:031:1,2016-07-01T18:30:00Z,28.4073,-96.7122,0.0,2.6,50.0,3.5,'11111222,11111222,11111222' 
TCOON,ioos:station:TCOON:031:1,2016-07-01T18:36:00Z,28.4073,-96.7122,0.0,2.5,357.0,3.1,'11111222,11111222,11111222' 
TCOON,ioos:station:TCOON:031:1,2016-07-01T18:42:00Z,28.4073,-96.7122,0.0,2.2,13.0,2.8,'11111222,11111222,11111222' 
TCOON,ioos:station:TCOON:031:1,2016-07-01T18:48:00Z,28.4073,-96.7122,0.0,2.0,15.0,2.9,'11111222,11111222,11111222' 
TCOON,ioos:station:TCOON:031:1,2016-07-01T18:54:00Z,28.4073,-96.7122,0.0,2.7,54.0,4.0,'11111222,11111222,11111222' 
TCOON,ioos:station:TCOON:031:1,2016-07-01T19:00:00Z,28.4073,-96.7122,0.0,0.8,96.0,2.9,'11111222,11111222,11111222' 
TCOON,ioos:station:TCOON:031:1,2016-07-01T19:06:00Z,28.4073,-96.7122,0.0,1.0,155.0,2.9,'11111222,11111222,11111222' 
TCOON,ioos:station:TCOON:031:1,2016-07-01T19:12:00Z,28.4073,-96.7122,0.0,1.1,161.0,1.9,'11111222,11111222,11111222' 
TCOON,ioos:station:TCOON:031:1,2016-07-01T19:18:00Z,28.4073,-96.7122,0.0,1.1,161.0,1.9,'1111122,1111122,1111122' 
TCOON,ioos:station:TCOON:031:1,2016-07-01T19:24:00Z,28.4073,-96.7122,0.0,2.0,109.0,2.9,'11111222,11111222,11111222' 
TCOON,ioos:station:TCOON:031:1,2016-07-01T19:30:00Z,28.4073,-96.7122,0.0,1.9,152.0,2.9,'11111222,11111222,11111222' 
TCOON,ioos:station:TCOON:031:1,2016-07-01T19:36:00Z,28.4073,-96.7122,0.0,2.7,199.0,3.1,'11111222,11111222,11111222' 
TCOON,ioos:station:TCOON:031:1,2016-07-01T19:42:00Z,28.4073,-96.7122,0.0,3.2,191.0,3.9,'11111222,11111222,11111222' 
TCOON,ioos:station:TCOON:031:1,2016-07-01T19:48:00Z,28.4073,-96.7122,0.0,1.4,221.0,3.6,'11111222,11111222,11111222' 
TCOON,ioos:station:TCOON:031:1,2016-07-01T19:54:00Z,28.4073,-96.7122,0.0,4.2,174.0,4.8,'11111222,11111222,11111222' 
TCOON,ioos:station:TCOON:031:1,2016-07-01T20:00:00Z,28.4073,-96.7122,0.0,3.2,181.0,4.6,'11111222,11111222,11111222' 
TCOON,ioos:station:TCOON:031:1,2016-07-01T20:06:00Z,28.4073,-96.7122,0.0,3.0,181.0,4.1,'11111222,11111222,11111222' 
TCOON,ioos:station:TCOON:031:1,2016-07-01T20:12:00Z,28.4073,-96.7122,0.0,4.7,184.0,5.1,'11111222,11111222,11111222' 
TCOON,ioos:station:TCOON:031:1,2016-07-01T20:18:00Z,28.4073,-96.7122,0.0,4.7,184.0,5.1,'1111122,1111122,1111122' 
TCOON,ioos:station:TCOON:031:1,2016-07-01T20:24:00Z,28.4073,-96.7122,0.0,4.6,170.0,5.7,'11111222,11111222,11111222' 
TCOON,ioos:station:TCOON:031:1,2016-07-01T20:30:00Z,28.4073,-96.7122,0.0,5.2,165.0,6.3,'11111222,11111222,11111222' 
TCOON,ioos:station:TCOON:031:1,2016-07-01T20:36:00Z,28.4073,-96.7122,0.0,4.4,175.0,6.6,'11111222,11111222,11111222' 
TCOON,ioos:station:TCOON:031:1,2016-07-01T20:42:00Z,28.4073,-96.7122,0.0,4.1,168.0,5.4,'11111222,11111222,11111222' 
TCOON,ioos:station:TCOON:031:1,2016-07-01T20:48:00Z,28.4073,-96.7122,0.0,3.3,126.0,5.1,'11111222,11111222,11111222' 
TCOON,ioos:station:TCOON:031:1,2016-07-01T20:54:00Z,28.4073,-96.7122,0.0,3.7,149.0,4.7,'11111222,11111222,11111222' 
TCOON,ioos:station:TCOON:031:1,2016-07-01T21:00:00Z,28.4073,-96.7122,0.0,3.5,127.0,5.9,'11111222,11111222,11111222' 
TCOON,ioos:station:TCOON:031:1,2016-07-01T21:06:00Z,28.4073,-96.7122,0.0,4.9,134.0,6.8,'11111222,11111222,11111222' 
TCOON,ioos:station:TCOON:031:1,2016-07-01T21:12:00Z,28.4073,-96.7122,0.0,4.5,138.0,5.5,'11111222,11111222,11111222' 